| time (UTC) | temp C | wind direction | speed KPH | gust KPH | rain 1hr cm | rain 24hr cm | rain mn cm | humidity % | barometer mb |
| 20260506154644 | 17 | 167 | 0.0 | 0.0 | 0.00 | 0.00 | 0.00 | 29 | 1007.0 |
| 20260506152645 | 17 | 279 | 3.2 | 0.0 | 0.00 | 0.00 | 0.00 | 26 | 1007.0 |
| 20260506152148 | 17 | 54 | 6.4 | 4.8 | 0.00 | 0.00 | 0.00 | 24 | 1007.0 |
| 20260506151647 | 18 | 151 | 3.2 | 8.0 | 0.00 | 0.00 | 0.00 | 25 | 1007.0 |
| 20260506150646 | 18 | 55 | 8.0 | 11.3 | 0.00 | 0.00 | 0.00 | 27 | 1007.0 |
| 20260506145149 | 19 | 331 | 0.0 | 4.8 | 0.00 | 0.00 | 0.00 | 27 | 1007.0 |
| 20260506144647 | 19 | 175 | 0.0 | 0.0 | 0.00 | 0.00 | 0.00 | 27 | 1007.0 |
| 20260506140646 | 19 | 95 | 3.2 | 6.4 | 0.00 | 0.00 | 0.00 | 25 | 1007.0 |
| 20260506135147 | 20 | 195 | 3.2 | 4.8 | 0.00 | 0.00 | 0.00 | 22 | 1007.0 |
| 20260506131646 | 21 | 157 | 0.0 | 3.2 | 0.00 | 0.00 | 0.00 | 22 | 1007.0 |
| 20260506130146 | 19 | 220 | 4.8 | 0.0 | 0.00 | 0.00 | 0.00 | 25 | 1007.0 |
| 20260506125146 | 20 | 244 | 0.0 | 0.0 | 0.00 | 0.00 | 0.00 | 22 | 1007.0 |
| 20260506124648 | 20 | 19 | 4.8 | 0.0 | 0.00 | 0.00 | 0.00 | 19 | 1007.0 |
| 20260506124148 | 21 | 63 | 0.0 | 0.0 | 0.00 | 0.00 | 0.00 | 19 | 1007.0 |
| 20260506123649 | 20 | 81 | 0.0 | 3.2 | 0.00 | 0.00 | 0.00 | 17 | 1008.0 |
| 20260506122646 | 21 | 85 | 0.0 | 4.8 | 0.00 | 0.00 | 0.00 | 17 | 1008.0 |
| 20260506121648 | 20 | 325 | 0.0 | 0.0 | 0.00 | 0.00 | 0.00 | 17 | 1007.0 |
| 20260506121148 | 20 | 160 | 3.2 | 0.0 | 0.00 | 0.00 | 0.00 | 17 | 1007.0 |
| 20260506120647 | 21 | 31 | 4.8 | 6.4 | 0.00 | 0.00 | 0.00 | 16 | 1007.0 |
| 20260506115648 | 21 | 124 | 3.2 | 4.8 | 0.00 | 0.00 | 0.00 | 17 | 1007.0 |
| 20260506115146 | 21 | 67 | 0.0 | 6.4 | 0.00 | 0.00 | 0.00 | 17 | 1008.0 |
| 20260506113647 | 20 | 143 | 4.8 | 4.8 | 0.00 | 0.00 | 0.00 | 20 | 1008.0 |
| 20260506110647 | 18 | 220 | 0.0 | 0.0 | 0.00 | 0.00 | 0.00 | 20 | 1008.0 |
| 20260506110146 | 18 | 225 | 0.0 | 0.0 | 0.00 | 0.00 | 0.00 | 20 | 1008.0 |
| 20260506105646 | 18 | 216 | 3.2 | 4.8 | 0.00 | 0.00 | 0.00 | 20 | 1008.0 |
| 20260506105147 | 18 | 123 | 0.0 | 0.0 | 0.00 | 0.00 | 0.00 | 23 | 1008.0 |
| 20260506104149 | 17 | 69 | 0.0 | 4.8 | 0.00 | 0.00 | 0.00 | 23 | 1008.0 |
| 20260506103648 | 18 | 138 | 0.0 | 0.0 | 0.00 | 0.00 | 0.00 | 23 | 1008.0 |
| 20260506103148 | 17 | 58 | 0.0 | 3.2 | 0.00 | 0.00 | 0.00 | 24 | 1008.0 |
| 20260506101649 | 17 | 78 | 0.0 | 0.0 | 0.00 | 0.00 | 0.00 | 24 | 1009.0 |
| 20260506101151 | 17 | 101 | 0.0 | 0.0 | 0.00 | 0.00 | 0.00 | 24 | 1009.0 |
| 20260506100647 | 17 | 91 | 3.2 | 0.0 | 0.00 | 0.00 | 0.00 | 24 | 1009.0 |
| 20260506100147 | 17 | 63 | 0.0 | 0.0 | 0.00 | 0.00 | 0.00 | 25 | 1009.0 |
| 20260506095647 | 17 | 63 | 0.0 | 0.0 | 0.00 | 0.00 | 0.00 | 26 | 1009.0 |
| 20260506090647 | 15 | 192 | 0.0 | 4.8 | 0.00 | 0.00 | 0.00 | 29 | 1009.0 |
| 20260506085145 | 15 | 192 | 0.0 | 0.0 | 0.00 | 0.00 | 0.00 | 34 | 1008.0 |
| 20260506084145 | 14 | 201 | 0.0 | 0.0 | 0.00 | 0.00 | 0.00 | 34 | 1008.0 |
| 20260506083645 | 14 | 203 | 0.0 | 0.0 | 0.00 | 0.00 | 0.00 | 35 | 1008.0 |
| 20260506083148 | 14 | 205 | 0.0 | 0.0 | 0.00 | 0.00 | 0.00 | 35 | 1008.0 |
| 20260506082645 | 13 | 197 | 3.2 | 3.2 | 0.00 | 0.00 | 0.00 | 37 | 1008.0 |
| 20260506082145 | 13 | 214 | 0.0 | 4.8 | 0.00 | 0.00 | 0.00 | 37 | 1008.0 |
| 20260506081645 | 13 | 213 | 0.0 | 0.0 | 0.00 | 0.00 | 0.00 | 38 | 1008.0 |
| 20260506080645 | 13 | 231 | 4.8 | 4.8 | 0.00 | 0.00 | 0.00 | 40 | 1008.0 |
| 20260506072645 | 11 | 269 | 0.0 | 0.0 | 0.00 | 0.00 | 0.00 | 63 | 1008.0 |
| 20260506071648 | 11 | 261 | 0.0 | 6.4 | 0.00 | 0.00 | 0.00 | 64 | 1008.0 |
| 20260506070145 | 10 | 261 | 0.0 | 0.0 | 0.00 | 0.00 | 0.00 | 67 | 1008.0 |
| 20260506061647 | 9 | 225 | 8.0 | 6.4 | 0.00 | 0.00 | 0.00 | 69 | 1008.0 |
| 20260506061147 | 10 | 242 | 0.0 | 0.0 | 0.00 | 0.00 | 0.00 | 71 | 1008.0 |
| 20260506060645 | 9 | 265 | 3.2 | 4.8 | 0.00 | 0.00 | 0.00 | 71 | 1008.0 |
| 20260506060146 | 9 | 218 | 4.8 | 3.2 | 0.00 | 0.00 | 0.00 | 72 | 1008.0 |
| 20260506051145 | 7 | 294 | 3.2 | 8.0 | 0.00 | 0.00 | 0.00 | 70 | 1008.0 |
| 20260506041146 | 8 | 289 | 0.0 | 0.0 | 0.00 | 0.00 | 0.00 | 71 | 1007.0 |
| 20260506033147 | 8 | 289 | 0.0 | 0.0 | 0.00 | 0.00 | 0.00 | 69 | 1007.0 |
| 20260506032146 | 8 | 289 | 0.0 | 3.2 | 0.00 | 0.00 | 0.00 | 69 | 1007.0 |
| 20260506031646 | 8 | 289 | 0.0 | 0.0 | 0.00 | 0.00 | 0.00 | 70 | 1007.0 |
| 20260506031145 | 8 | 289 | 0.0 | 0.0 | 0.00 | 0.00 | 0.00 | 71 | 1007.0 |
| 20260506030645 | 8 | 289 | 0.0 | 0.0 | 0.00 | 0.00 | 0.00 | 70 | 1007.0 |
| 20260506030145 | 8 | 289 | 0.0 | 0.0 | 0.00 | 0.00 | 0.00 | 70 | 1007.0 |
| 20260506025647 | 8 | 289 | 0.0 | 3.2 | 0.00 | 0.00 | 0.00 | 70 | 1007.0 |
| 20260506025146 | 8 | 289 | 0.0 | 0.0 | 0.00 | 0.00 | 0.00 | 70 | 1007.0 |
| 20260506024650 | 8 | 289 | 3.2 | 6.4 | 0.00 | 0.00 | 0.00 | 70 | 1007.0 |
| 20260506023647 | 8 | 289 | 3.2 | 4.8 | 0.00 | 0.00 | 0.00 | 71 | 1007.0 |
| 20260506022645 | 8 | 288 | 0.0 | 0.0 | 0.00 | 0.00 | 0.00 | 71 | 1007.0 |
| 20260506022145 | 8 | 288 | 0.0 | 0.0 | 0.00 | 0.00 | 0.00 | 71 | 1007.0 |
| 20260506020145 | 8 | 288 | 0.0 | 4.8 | 0.00 | 0.00 | 0.00 | 72 | 1007.0 |
| 20260506015645 | 9 | 288 | 0.0 | 0.0 | 0.00 | 0.00 | 0.00 | 72 | 1007.0 |
| 20260506015146 | 9 | 288 | 4.8 | 4.8 | 0.00 | 0.00 | 0.00 | 72 | 1007.0 |
| 20260506013648 | 9 | 288 | 0.0 | 0.0 | 0.00 | 0.00 | 0.00 | 71 | 1007.0 |
| 20260506011646 | 9 | 287 | 4.8 | 4.8 | 0.00 | 0.00 | 0.00 | 70 | 1007.0 |
| 20260506011145 | 9 | 287 | 0.0 | 3.2 | 0.00 | 0.00 | 0.00 | 71 | 1007.0 |
| 20260506010145 | 9 | 287 | 0.0 | 0.0 | 0.00 | 0.00 | 0.00 | 70 | 1007.0 |
| 20260506004645 | 10 | 287 | 0.0 | 0.0 | 0.00 | 0.00 | 0.00 | 71 | 1007.0 |
| 20260506003645 | 10 | 287 | 0.0 | 0.0 | 0.00 | 0.00 | 0.00 | 71 | 1007.0 |
| 20260506003145 | 10 | 287 | 0.0 | 0.0 | 0.00 | 0.00 | 0.00 | 73 | 1007.0 |
| 20260506002145 | 10 | 287 | 0.0 | 0.0 | 0.00 | 0.00 | 0.00 | 72 | 1007.0 |
| 20260506000647 | 10 | 287 | 0.0 | 4.8 | 0.00 | 0.00 | 0.00 | 72 | 1007.0 |
| 20260506000145 | 10 | 287 | 0.0 | 0.0 | 0.00 | 0.00 | 0.10 | 72 | 1007.0 |
| 20260505234146 | 10 | 287 | 0.0 | 0.0 | 0.00 | 0.00 | 0.10 | 71 | 1008.0 |
| 20260505233646 | 10 | 286 | 0.0 | 0.0 | 0.00 | 0.00 | 0.10 | 71 | 1008.0 |
| 20260505230645 | 10 | 285 | 0.0 | 0.0 | 0.00 | 0.00 | 0.10 | 72 | 1008.0 |
| 20260505230147 | 10 | 285 | 0.0 | 0.0 | 0.00 | 0.00 | 0.10 | 71 | 1008.0 |
| 20260505225645 | 10 | 284 | 6.4 | 3.2 | 0.00 | 0.00 | 0.10 | 71 | 1008.0 |
| 20260505224647 | 10 | 284 | 0.0 | 0.0 | 0.00 | 0.00 | 0.10 | 71 | 1008.0 |
| 20260505224146 | 11 | 284 | 0.0 | 0.0 | 0.00 | 0.00 | 0.10 | 70 | 1008.0 |
| 20260505222148 | 11 | 263 | 0.0 | 0.0 | 0.00 | 0.00 | 0.10 | 70 | 1008.0 |
| 20260505221646 | 11 | 258 | 0.0 | 0.0 | 0.00 | 0.00 | 0.10 | 69 | 1008.0 |
| 20260505220647 | 11 | 249 | 0.0 | 0.0 | 0.00 | 0.00 | 0.10 | 68 | 1008.0 |
| 20260505220147 | 11 | 269 | 4.8 | 0.0 | 0.00 | 0.00 | 0.10 | 67 | 1008.0 |
| 20260505215647 | 11 | 319 | 3.2 | 0.0 | 0.00 | 0.00 | 0.10 | 68 | 1008.0 |
| 20260505215145 | 11 | 351 | 0.0 | 0.0 | 0.00 | 0.00 | 0.10 | 69 | 1008.0 |
| 20260505214647 | 11 | 325 | 4.8 | 0.0 | 0.00 | 0.00 | 0.10 | 69 | 1008.0 |
| 20260505214147 | 11 | 308 | 0.0 | 0.0 | 0.00 | 0.00 | 0.10 | 68 | 1008.0 |
| 20260505213147 | 12 | 327 | 0.0 | 0.0 | 0.00 | 0.00 | 0.10 | 68 | 1008.0 |
| 20260505212646 | 12 | 300 | 0.0 | 0.0 | 0.00 | 0.00 | 0.10 | 69 | 1008.0 |
| 20260505211147 | 12 | 336 | 0.0 | 6.4 | 0.00 | 0.00 | 0.10 | 67 | 1008.0 |
| 20260505203647 | 12 | 21 | 0.0 | 0.0 | 0.00 | 0.00 | 0.10 | 65 | 1008.0 |
| 20260505203147 | 12 | 21 | 0.0 | 0.0 | 0.00 | 0.00 | 0.10 | 65 | 1008.0 |
| 20260505201147 | 13 | 21 | 0.0 | 0.0 | 0.00 | 0.00 | 0.10 | 64 | 1007.0 |
| 20260505200648 | 13 | 22 | 3.2 | 4.8 | 0.00 | 0.00 | 0.10 | 64 | 1007.0 |
| 20260505200148 | 13 | 40 | 0.0 | 0.0 | 0.00 | 0.00 | 0.10 | 63 | 1007.0 |
| 20260505195646 | 13 | 20 | 0.0 | 0.0 | 0.00 | 0.00 | 0.10 | 63 | 1007.0 |
| 20260505194647 | 13 | 1 | 0.0 | 0.0 | 0.00 | 0.00 | 0.10 | 64 | 1007.0 |
| 20260505193646 | 13 | 1 | 0.0 | 0.0 | 0.00 | 0.00 | 0.10 | 60 | 1007.0 |
| 20260505193146 | 13 | 1 | 0.0 | 0.0 | 0.00 | 0.00 | 0.10 | 61 | 1007.0 |
| 20260505192648 | 13 | 2 | 0.0 | 0.0 | 0.00 | 0.00 | 0.10 | 60 | 1007.0 |
| 20260505192148 | 13 | 285 | 0.0 | 0.0 | 0.00 | 0.00 | 0.10 | 59 | 1007.0 |
| 20260505191146 | 13 | 284 | 0.0 | 0.0 | 0.00 | 0.00 | 0.10 | 57 | 1007.0 |
| 20260505183646 | 14 | 333 | 8.0 | 6.4 | 0.00 | 0.00 | 0.10 | 41 | 1007.0 |
| 20260505182146 | 15 | 240 | 4.8 | 6.4 | 0.00 | 0.00 | 0.10 | 53 | 1007.0 |
| 20260505181645 | 16 | 159 | 0.0 | 6.4 | 0.00 | 0.00 | 0.10 | 54 | 1007.0 |
| 20260505180645 | 16 | 162 | 0.0 | 0.0 | 0.00 | 0.00 | 0.10 | 53 | 1006.0 |
| 20260505175645 | 16 | 164 | 0.0 | 0.0 | 0.00 | 0.00 | 0.10 | 50 | 1006.0 |
| 20260505175145 | 16 | 161 | 0.0 | 0.0 | 0.00 | 0.00 | 0.10 | 50 | 1006.0 |
| 20260505172645 | 17 | 276 | 0.0 | 3.2 | 0.00 | 0.00 | 0.10 | 44 | 1006.0 |
| 20260505171646 | 17 | 95 | 0.0 | 0.0 | 0.00 | 0.00 | 0.10 | 41 | 1006.0 |
| 20260505171145 | 17 | 137 | 0.0 | 0.0 | 0.00 | 0.00 | 0.10 | 40 | 1006.0 |
| 20260505170645 | 17 | 252 | 3.2 | 0.0 | 0.00 | 0.00 | 0.10 | 38 | 1006.0 |
| 20260505170145 | 17 | 219 | 4.8 | 0.0 | 0.00 | 0.00 | 0.10 | 37 | 1006.0 |
| 20260505163645 | 18 | 318 | 0.0 | 4.8 | 0.00 | 0.00 | 0.10 | 34 | 1006.0 |
| 20260505162145 | 18 | 337 | 0.0 | 0.0 | 0.00 | 0.00 | 0.10 | 34 | 1006.0 |